Home > Weather > Incheon > Past weeks

Flag for South Korea Past Weather in Incheon, South Korea — Yesterday and Last 2 Weeks

Now
75 °F

Heavy rain. Mostly cloudy.


Feels Like: 75 °F
Forecast: 69 / 77 °F
Wind: 12 mph from South

Location: Incheon International Airport

Current Time: Jul 1, 2016 at 3:26:06 PM

Latest Report: Jul 1, 2016 at 3:00 PM


Visibility: 4 mi

Pressure: 29.62 "Hg

Humidity: 89%

Dew Point: 72 °F

Location of IncheonLocation

Past Weather in Incheon — Graph

°F

Incheon Temperature Yesterday

Maximum temperature yesterday: 75 °F (at 12:00 PM)
Minimum temperature yesterday: 70 °F (at 2:00 AM)
Average temperature yesterday: 72 °F

High & Low Weather Summary for the Past Weeks

 TemperatureHumidityPressure
High82 °F (Jun 27, 2:00 PM)94% (Jun 17, 4:30 AM)29.92 "Hg (Jun 17, 4:30 AM)
Low63 °F (Jun 17, 3:30 AM)37% (Jun 27, 2:00 PM)29.45 "Hg (Jun 24, 2:00 PM)
Average72 °F74%29.75 "Hg
* Reported Jun 16 2:00 PM — Jul 1 2:00 PM, Incheon, Weather by CustomWeather, © 2016

Note: Actual official high and low records may vary slightly from our data, if they occured in-between our weather recording intervals... More about our weather records

Advertising

Incheon Weather History for the Previous 24 Hours

Scroll right to see more
 ConditionsComfort  
Time TempWeatherWind HumidityBarometerVisibility
2:00 PM
Fri, Jul 1
73 °FRain. Fog.3 mph89%29.62 "Hg3 mi
1:30 PM73 °FLight rain. Mostly cloudy.5 mph89%29.65 "Hg4 mi
1:00 PM73 °FLight rain. Mostly cloudy.9 mph89%29.65 "Hg4 mi
12:30 PM73 °FRain. Mostly cloudy.8 mph89%29.68 "Hg4 mi
12:00 PM75 °FLight rain. Mostly cloudy.7 mph83%29.71 "Hg6 mi
11:30 AM75 °FLight rain. Mostly cloudy.8 mph83%29.71 "HgN/A
11:00 AM77 °FMostly cloudy.10 mph74%29.71 "HgN/A
10:30 AM77 °FLight rain. Mostly cloudy.12 mph74%29.71 "HgN/A
10:00 AM77 °FMostly cloudy.13 mph74%29.74 "HgN/A
9:30 AM77 °FLight rain. Mostly cloudy.13 mph74%29.74 "HgN/A
9:00 AM75 °FMostly cloudy.15 mph78%29.77 "HgN/A
8:30 AM75 °FMostly cloudy.14 mph78%29.77 "Hg5 mi
8:00 AM75 °FMostly cloudy.12 mph78%29.74 "Hg5 mi
7:30 AM73 °FMostly cloudy.10 mph83%29.77 "Hg5 mi
7:00 AM73 °FMostly cloudy.13 mph83%29.77 "Hg5 mi
6:30 AM73 °FMostly cloudy.12 mph83%29.74 "Hg5 mi
6:00 AM73 °FOvercast.12 mph83%29.74 "Hg5 mi
5:30 AM72 °FOvercast.10 mph88%29.74 "Hg5 mi
5:00 AM72 °FOvercast.8 mph83%29.74 "Hg4 mi
4:30 AM72 °FOvercast.10 mph83%29.77 "Hg4 mi
4:00 AM72 °FOvercast.14 mph88%29.74 "Hg4 mi
3:30 AM72 °FOvercast.15 mph83%29.77 "Hg4 mi
3:00 AM72 °FOvercast.15 mph88%29.77 "Hg4 mi
2:30 AM72 °FOvercast.12 mph83%29.77 "Hg4 mi
2:00 AM72 °FOvercast.12 mph88%29.77 "Hg4 mi
1:30 AM72 °FLight rain. Fog.9 mph88%29.77 "Hg2 mi
1:00 AM72 °FLight rain. Overcast.13 mph83%29.80 "Hg4 mi
12:30 AM72 °FOvercast.13 mph83%29.80 "HgN/A
12:00 AM73 °FOvercast.13 mph83%29.80 "Hg5 mi
11:30 PM
Thu, Jun 30
73 °FOvercast.12 mph83%29.80 "Hg4 mi
11:00 PM72 °FFog.12 mph88%29.80 "Hg3 mi
10:30 PM72 °FFog.13 mph88%29.80 "Hg3 mi
10:00 PM72 °FFog.14 mph88%29.77 "Hg2 mi
9:30 PM72 °FFog.15 mph88%29.80 "Hg2 mi
9:00 PM72 °FDrizzle. Fog.13 mph88%29.77 "Hg1 mi
8:30 PM72 °FLight rain. Fog.14 mph88%29.77 "Hg1 mi
8:00 PM72 °FLight rain. Fog.13 mph88%29.77 "Hg2 mi
7:30 PM73 °FFog.10 mph83%29.80 "Hg3 mi
7:00 PM72 °FFog.7 mph88%29.80 "Hg3 mi
6:30 PM72 °FFog.8 mph88%29.80 "Hg2 mi
6:00 PM72 °FLight rain. Fog.7 mph83%29.80 "Hg2 mi
5:30 PM72 °FLight rain. Fog.6 mph83%29.80 "Hg2 mi
5:00 PM72 °FLight rain. Cloudy.7 mph83%29.80 "Hg4 mi
4:30 PM73 °FMore clouds than sun.8 mph78%29.80 "HgN/A
4:00 PM75 °FMore clouds than sun.10 mph74%29.80 "HgN/A
3:30 PM75 °FMore clouds than sun.9 mph78%29.80 "HgN/A
3:00 PM75 °FBroken clouds.9 mph78%29.80 "HgN/A
Weather by CustomWeather, © 2016

See weather overviewHow to use our weather pages